Wind_Speed
17 15 14 13 12 12 10 10 9 10 11 14 14 14 14 15 17 16 15 15 13 10 8 7 7 8 9 10 10 11 12 11 11 11 11 11 11 10 9 9 8 6 6 5
16 14 14 14 13 11 10 10 10 11 13 15 15 15 14 15 16 16 15 14 10 7 5 5 6 8 8 8 9 11 12 11 11 11 11 11 11 10 9 9 8 7 6 5
14 14 16 15 13 12 11 10 11 13 14 16 16 14 15 14 14 14 13 12 9 6 4 4 6 7 7 7 9 11 12 11 11 11 11 11 11 11 11 10 8 7 6 5
16 17 17 16 15 13 12 11 13 15 16 16 16 15 13 13 13 12 11 10 6 4 4 4 6 7 7 8 8 10 12 12 12 11 12 12 12 12 12 10 9 8 7 6
16 17 18 18 16 14 12 12 14 16 17 17 17 17 14 14 12 10 8 7 5 4 3 4 6 7 7 7 8 10 11 12 12 13 13 13 13 13 12 11 9 8 7 6
17 19 19 18 17 15 13 15 16 17 18 18 17 17 14 14 12 8 6 6 5 3 3 4 6 7 7 7 7 9 10 12 13 13 13 13 14 13 12 11 10 8 7 6
17 19 19 19 19 17 17 18 18 18 18 18 16 16 14 13 12 8 5 4 4 4 4 4 5 6 6 6 7 8 9 11 12 13 13 14 14 13 13 12 10 9 8 6
16 17 19 20 19 18 18 19 20 19 17 16 14 14 13 12 11 7 4 3 2 4 5 6 6 6 6 7 7 8 9 11 12 13 13 14 14 13 13 11 10 9 8 6
16 16 19 20 19 19 18 20 21 20 18 17 15 13 13 10 9 7 5 4 3 4 5 6 6 7 7 7 7 8 9 11 12 14 14 14 14 13 13 11 11 9 7 6
18 17 20 22 21 20 20 20 21 22 21 19 16 12 9 8 8 7 6 4 4 5 6 6 7 8 8 8 8 9 9 11 12 13 14 14 14 13 12 12 10 8 7 7
22 21 21 23 24 23 23 23 22 21 20 20 17 12 9 7 7 7 5 5 6 6 7 7 8 8 8 8 9 10 11 11 12 13 13 14 14 13 12 12 10 9 8 7
26 25 24 25 25 26 26 24 23 23 21 20 18 13 10 7 6 6 6 6 6 7 7 8 8 8 9 9 10 11 11 11 12 13 13 13 13 13 12 11 10 9 8 7
29 28 26 26 27 27 27 26 25 24 23 21 19 15 12 9 8 7 6 7 7 7 8 8 8 8 9 9 9 11 12 12 12 13 13 13 13 12 11 11 10 10 9 8
30 30 29 28 27 28 29 28 27 26 25 23 19 18 16 13 11 10 10 9 8 7 9 9 9 9 9 9 9 11 11 12 12 13 13 14 13 12 11 11 11 10 10 9
31 32 32 31 30 30 29 29 28 27 26 24 20 20 19 16 14 11 10 10 9 8 10 10 10 10 10 10 10 11 11 12 12 13 14 14 13 12 12 12 11 11 11 11
31 32 32 32 33 33 31 28 27 28 26 24 22 21 21 19 15 11 9 10 9 9 11 11 10 11 11 11 11 12 12 12 13 13 14 14 14 14 13 13 13 13 13 14
29 30 31 31 32 33 29 27 28 29 28 26 24 23 22 20 16 13 10 10 10 10 11 11 11 11 11 11 12 12 13 13 13 14 14 14 14 15 15 15 15 16 16 17
26 27 28 28 28 31 27 26 27 28 27 27 26 25 24 20 18 17 14 12 11 10 12 13 13 13 13 13 13 13 13 13 14 14 15 15 16 16 16 17 17 18 19 19
24 24 25 27 28 28 24 24 24 26 26 27 27 25 24 22 21 19 17 14 13 12 13 14 15 14 14 14 15 15 15 15 15 16 16 17 18 18 19 19 19 20 21 21
22 22 23 24 24 23 23 23 25 25 26 26 25 24 25 23 22 19 17 15 15 14 14 15 16 17 16 16 16 16 16 17 17 18 18 18 19 20 20 21 21 22 22 23
22 22 22 22 23 22 22 23 25 26 24 24 24 24 24 24 22 22 19 17 16 16 16 17 17 17 17 17 18 17 17 17 18 18 19 19 20 21 22 22 23 24 24 24
21 21 21 22 23 22 21 22 23 24 25 25 24 23 23 24 21 22 21 19 17 16 16 17 18 18 17 17 18 18 18 19 20 20 20 21 22 23 23 24 24 25 25 25
20 19 19 21 22 21 22 22 22 22 23 24 26 27 24 24 23 21 20 19 19 18 17 17 17 18 18 18 19 19 20 21 21 21 22 23 24 25 25 26 26 27 27 27
20 19 18 17 17 19 20 21 20 21 22 23 23 24 24 23 22 20 18 17 17 18 18 18 19 20 19 19 19 20 22 22 22 23 23 24 25 26 27 27 28 28 29 29
18 18 17 16 16 17 17 19 21 21 21 21 22 22 23 23 22 21 20 19 18 18 18 19 20 20 20 21 21 21 22 23 24 24 25 25 26 28 29 29 30 30 31 31
18 18 17 17 16 15 14 15 17 18 19 19 19 21 22 21 21 21 21 20 19 20 20 20 20 20 21 22 23 23 24 25 25 26 26 27 28 28 29 30 30 30 31 32
Wind_Direction
247 243 236 233 232 231 240 255 270 284 291 297 296 296 302 310 311 316 320 320 313 301 287 265 246 236 226 218 212 210 211 208 211 214 219 219 213 215 215 212 208 211 209 206
242 235 227 225 226 230 241 262 273 283 287 290 292 298 301 306 310 312 314 320 318 303 287 247 230 225 218 219 205 202 203 207 209 211 216 211 210 208 204 199 197 193 188 189
235 222 221 222 226 231 238 256 271 283 279 280 285 291 297 301 307 312 314 316 308 298 263 238 226 212 207 204 197 199 201 203 205 207 206 205 202 198 196 195 191 185 183 173
228 222 222 223 221 230 240 256 269 275 277 279 280 287 289 293 301 311 317 320 310 280 244 226 214 202 200 200 198 202 205 204 204 205 202 196 193 188 185 185 180 177 176 169
225 222 224 223 222 232 244 253 261 267 274 276 279 283 283 285 292 305 316 323 312 267 239 220 202 203 201 196 196 202 204 202 197 194 190 187 184 181 180 179 177 175 170 165
223 223 226 225 223 229 240 251 258 264 268 274 280 284 282 278 278 287 302 309 301 254 213 199 192 199 194 192 197 200 196 193 189 186 184 184 182 181 181 182 179 176 172 173
225 224 227 227 227 228 238 250 257 262 267 273 280 283 287 274 269 278 287 286 277 228 212 206 194 196 195 193 195 196 191 187 186 186 184 183 181 180 179 179 177 177 177 176
230 223 226 228 230 234 243 251 258 266 271 272 273 285 289 263 263 267 258 235 208 205 207 201 198 197 198 192 189 187 187 187 186 184 180 180 178 177 177 178 178 179 179 178
238 223 220 225 229 237 244 250 257 264 267 270 277 290 282 265 251 250 240 212 196 188 190 197 201 199 194 192 189 188 185 184 182 184 186 183 179 178 181 182 180 182 186 187
239 229 216 225 232 239 243 247 252 258 264 269 278 293 301 263 252 244 234 214 201 197 193 194 197 200 199 198 196 194 188 185 183 183 183 184 182 182 183 183 185 190 194 195
243 237 225 227 233 239 242 247 251 251 257 267 275 285 292 273 245 236 226 197 193 198 202 202 199 198 200 203 201 197 193 191 189 188 186 186 187 186 183 185 192 199 204 207
245 244 236 232 238 242 246 250 253 250 255 263 269 275 280 266 251 242 224 212 204 203 203 204 202 201 202 205 204 200 196 195 192 192 190 190 190 190 190 195 201 206 209 215
245 246 245 240 240 243 245 248 253 252 254 258 260 263 263 262 255 251 239 222 212 204 202 204 204 204 207 209 210 201 194 195 195 192 193 194 196 197 201 207 209 212 218 230
247 247 247 244 241 244 246 247 251 255 254 256 256 258 256 254 254 253 246 227 212 205 203 206 206 206 205 205 203 199 200 200 199 199 199 201 203 207 211 215 218 224 233 243
250 249 248 247 244 244 247 249 251 252 253 256 253 255 254 252 250 249 237 221 215 213 209 206 209 209 208 208 206 205 205 205 205 207 208 210 213 217 221 225 231 238 245 254
251 252 252 251 248 247 248 247 248 250 251 251 252 251 248 250 246 243 237 233 224 223 217 213 215 214 212 211 211 211 212 212 212 214 217 220 225 228 231 236 241 247 254 260
253 254 252 251 249 248 250 249 248 247 248 249 249 249 246 247 244 243 242 247 246 240 229 221 216 216 215 215 217 218 219 220 221 223 226 229 231 235 239 244 248 254 259 263
251 251 251 250 247 247 249 247 244 244 244 246 246 247 248 247 248 247 244 244 244 243 234 220 218 219 219 220 222 223 224 225 227 230 232 235 238 241 245 249 253 258 262 266
250 250 250 248 247 247 245 244 243 243 242 243 243 240 241 243 247 246 240 236 234 235 231 225 224 222 221 224 227 228 229 231 232 235 237 241 244 247 250 253 257 261 264 267
248 247 246 246 247 248 243 244 243 243 239 239 240 235 236 242 242 240 238 235 226 227 229 229 227 225 224 226 230 231 232 234 237 240 241 245 248 251 254 256 259 262 266 269
248 247 245 245 249 251 250 248 244 241 239 239 238 237 240 241 242 238 239 238 230 230 228 228 229 229 229 231 233 235 235 238 242 244 245 248 252 255 257 259 262 265 268 271
249 249 245 246 249 250 253 250 242 241 238 238 239 240 240 239 240 236 234 235 232 229 227 226 227 230 232 235 237 239 241 243 245 248 251 253 255 257 260 263 264 266 268 272
249 249 248 247 248 250 252 250 247 244 238 237 238 240 243 242 241 236 232 226 226 227 226 229 230 234 237 239 241 243 245 248 250 252 255 257 259 259 261 263 265 266 267 271
248 248 248 249 251 249 249 245 243 243 242 238 236 238 239 235 236 229 227 223 223 228 231 234 238 241 242 244 245 246 247 249 251 254 256 258 260 262 263 265 268 268 269 271
253 255 257 258 259 254 258 251 246 243 238 236 234 228 227 227 230 231 230 228 227 230 235 238 242 245 246 247 246 248 250 251 252 254 258 259 261 265 267 269 270 270 271 273
255 257 258 259 256 256 258 254 254 248 240 239 238 230 228 230 232 230 231 231 229 230 235 239 243 247 249 249 250 251 251 253 255 258 261 263 265 268 270 272 273 274 275 276
Height
5854 5856 5857 5858 5858 5859 5859 5859 5859 5860 5859 5859 5857 5856 5855 5854 5852 5850 5848 5846 5844 5842 5841 5841 5840 5841 5843 5845 5847 5849 5851 5854 5856 5857 5860 5862 5864 5866 5868 5869 5870 5871 5872 5873
5851 5852 5853 5853 5854 5855 5855 5856 5856 5857 5857 5855 5854 5853 5852 5851 5849 5848 5846 5844 5842 5841 5840 5840 5840 5840 5841 5843 5845 5848 5850 5852 5854 5856 5858 5861 5863 5865 5866 5868 5869 5870 5871 5872
5846 5849 5848 5849 5850 5851 5852 5853 5853 5853 5854 5852 5851 5851 5850 5848 5847 5845 5843 5841 5840 5839 5839 5838 5839 5839 5840 5841 5843 5846 5848 5850 5852 5854 5856 5859 5861 5863 5864 5866 5868 5869 5870 5871
5841 5843 5844 5845 5846 5847 5849 5850 5850 5851 5851 5850 5849 5848 5848 5846 5844 5842 5840 5838 5837 5836 5837 5837 5837 5837 5839 5841 5842 5844 5846 5849 5851 5853 5855 5857 5859 5861 5863 5865 5867 5868 5870 5870
5837 5839 5839 5841 5843 5844 5845 5846 5847 5847 5847 5846 5846 5845 5846 5843 5841 5840 5838 5837 5835 5835 5835 5835 5836 5837 5838 5840 5841 5843 5844 5847 5849 5851 5853 5855 5858 5860 5862 5864 5866 5868 5869 5870
5833 5834 5835 5837 5839 5840 5841 5842 5843 5843 5843 5843 5843 5842 5842 5840 5839 5837 5836 5835 5834 5834 5834 5834 5835 5836 5837 5839 5840 5841 5843 5845 5846 5849 5852 5854 5856 5858 5861 5863 5865 5866 5868 5868
5829 5830 5831 5833 5835 5836 5838 5839 5840 5840 5840 5840 5839 5838 5839 5837 5836 5835 5834 5834 5833 5833 5833 5834 5835 5836 5837 5838 5839 5840 5841 5843 5845 5848 5850 5853 5855 5857 5859 5862 5864 5865 5866 5867
5823 5827 5828 5829 5831 5832 5834 5835 5836 5836 5836 5836 5835 5835 5836 5835 5834 5832 5832 5832 5832 5832 5832 5833 5834 5835 5836 5837 5838 5839 5840 5842 5844 5847 5850 5852 5854 5856 5858 5861 5862 5864 5865 5866
5818 5822 5824 5825 5827 5828 5829 5830 5832 5832 5832 5832 5832 5832 5832 5831 5831 5830 5830 5830 5830 5831 5831 5832 5833 5834 5835 5836 5837 5839 5840 5842 5844 5846 5849 5851 5853 5855 5857 5859 5861 5862 5864 5864
5813 5816 5819 5821 5823 5823 5825 5826 5827 5828 5828 5828 5829 5829 5830 5829 5829 5828 5828 5827 5828 5829 5830 5831 5832 5833 5834 5835 5836 5838 5840 5841 5843 5845 5847 5849 5852 5854 5856 5857 5859 5861 5862 5863
5808 5811 5814 5816 5817 5819 5821 5822 5822 5822 5824 5824 5825 5829 5827 5826 5826 5826 5826 5826 5826 5827 5829 5830 5830 5831 5832 5834 5835 5837 5838 5840 5842 5844 5846 5848 5850 5852 5854 5856 5858 5859 5860 5861
5802 5805 5808 5811 5813 5814 5815 5816 5817 5819 5819 5820 5821 5826 5824 5824 5823 5824 5824 5825 5825 5826 5827 5828 5828 5829 5831 5832 5833 5835 5837 5839 5841 5843 5845 5847 5849 5851 5853 5855 5856 5857 5858 5859
5797 5800 5803 5805 5808 5809 5810 5811 5812 5814 5815 5816 5817 5822 5821 5821 5821 5822 5823 5823 5824 5824 5825 5826 5827 5828 5829 5830 5831 5832 5835 5838 5839 5841 5843 5845 5847 5849 5851 5852 5854 5855 5856 5857
5792 5794 5797 5799 5801 5802 5804 5805 5807 5808 5809 5811 5813 5815 5817 5817 5818 5820 5820 5821 5821 5822 5824 5825 5826 5826 5828 5829 5830 5832 5834 5836 5838 5840 5842 5844 5846 5847 5849 5850 5851 5852 5853 5854
5785 5787 5789 5792 5794 5795 5797 5800 5801 5803 5804 5806 5808 5809 5812 5813 5815 5816 5817 5818 5819 5819 5821 5822 5824 5824 5826 5827 5829 5831 5832 5834 5836 5838 5840 5842 5844 5845 5846 5848 5849 5849 5850 5850
5778 5780 5782 5784 5786 5788 5791 5794 5796 5797 5799 5800 5802 5804 5807 5808 5810 5811 5812 5814 5815 5816 5818 5819 5821 5822 5823 5825 5827 5828 5830 5832 5834 5836 5838 5839 5841 5842 5843 5844 5845 5845 5846 5846
5771 5772 5774 5776 5778 5781 5785 5788 5789 5790 5792 5794 5796 5800 5801 5803 5805 5806 5808 5809 5811 5813 5814 5816 5818 5819 5821 5822 5824 5826 5827 5829 5831 5833 5834 5836 5837 5838 5839 5840 5841 5841 5841 5841
5763 5764 5766 5769 5772 5774 5781 5780 5781 5783 5785 5788 5790 5792 5795 5797 5800 5802 5803 5805 5807 5809 5810 5812 5814 5816 5818 5819 5821 5823 5824 5826 5827 5829 5830 5832 5833 5834 5835 5835 5836 5836 5836 5836
5756 5758 5760 5762 5764 5767 5772 5773 5775 5777 5779 5781 5782 5786 5789 5792 5794 5796 5798 5800 5802 5804 5806 5808 5810 5812 5814 5816 5818 5819 5821 5822 5823 5825 5826 5827 5828 5829 5830 5830 5830 5830 5830 5830
5751 5753 5755 5756 5758 5760 5765 5767 5768 5771 5773 5775 5776 5779 5783 5785 5788 5791 5793 5795 5796 5798 5801 5803 5805 5807 5809 5811 5813 5814 5816 5818 5819 5820 5821 5822 5823 5823 5824 5824 5824 5824 5824 5823
5746 5748 5749 5750 5751 5754 5757 5759 5762 5765 5768 5769 5771 5773 5776 5779 5782 5785 5788 5790 5791 5793 5795 5798 5800 5802 5804 5806 5808 5809 5811 5812 5814 5814 5815 5816 5817 5817 5817 5818 5818 5818 5817 5817
5741 5742 5743 5744 5746 5751 5750 5752 5754 5757 5760 5763 5765 5767 5768 5771 5774 5777 5781 5783 5785 5788 5790 5792 5795 5797 5799 5801 5802 5804 5805 5806 5807 5808 5809 5810 5810 5811 5811 5811 5810 5810 5810 5809
5736 5737 5738 5740 5743 5743 5744 5745 5748 5750 5753 5756 5758 5761 5762 5765 5767 5770 5773 5776 5779 5782 5785 5787 5789 5791 5793 5795 5796 5798 5799 5800 5801 5802 5802 5803 5803 5803 5803 5803 5803 5802 5802 5801
5731 5732 5733 5734 5736 5737 5738 5740 5742 5744 5746 5749 5751 5753 5756 5759 5761 5764 5767 5770 5773 5776 5779 5782 5784 5786 5787 5788 5790 5791 5792 5793 5794 5795 5795 5796 5796 5795 5795 5795 5795 5794 5793 5793
5725 5727 5728 5729 5731 5732 5733 5734 5736 5739 5741 5743 5744 5746 5749 5753 5756 5759 5762 5765 5768 5771 5773 5776 5778 5779 5780 5781 5783 5784 5785 5786 5786 5787 5788 5788 5788 5788 5787 5787 5786 5786 5785 5784
5720 5722 5724 5725 5726 5728 5729 5729 5731 5732 5734 5737 5738 5741 5744 5747 5750 5753 5756 5759 5762 5765 5767 5769 5771 5772 5773 5774 5776 5777 5777 5778 5778 5779 5779 5780 5780 5779 5779 5778 5777 5776 5776 5774